Regional Weather Roundup
Issued by NWS

Home | Current Version | Previous Version | Graphics & Text | Print | Product List | Glossary Off
Versions: 1 2 3 4 5 6 7 8 9 10 11 12 13 14 15 16 17 18 19 20 21 22 23 24 25 26 27 28 29 30 31 32 33 34 35 36 37 38 39 40 41 42 43 44 45 46 47 48 49 50

000
ASUS43 KTOP 251559
RWRKS

WEATHER ROUNDUP FOR KANSAS
NATIONAL WEATHER SERVICE GOODLAND KS
1000 AM CST SUN JAN 25 2015

NOTE:  "FAIR" INDICATES FEW OR NO CLOUDS BELOW 12,000 FEET WITH NO
SIGNIFICANT WEATHER AND/OR OBSTRUCTIONS TO VISIBILITY.

KSZ001>006-013>018-027>032-041>047-251700-
NORTHWEST KANSAS

CITY           SKY/WX    TMP DP  RH WIND       PRES   REMARKS
GOODLAND       SUNNY     42  28  57 NW20G26   30.11R
HAYS           SUNNY     45  25  45 NW26G33   30.04R
HILL CITY      SUNNY     44  26  49 NW21G33   30.07R
RUSSELL        SUNNY     44  29  55 NW29G40   30.01R
$$

KSZ061>065-074>080-084>089-251700-
SOUTHWEST KANSAS

CITY           SKY/WX    TMP DP  RH WIND       PRES   REMARKS
DODGE CITY     SUNNY     45  24  43 N24G36    30.08R
ELKHART          N/A     44  24  45 W13         N/A
GARDEN CITY    SUNNY     44  23  43 N26G32    30.11R
GREAT BEND     SUNNY     45  27  49 N31G38    30.03R
LIBERAL        SUNNY     46  27  46 N22G30    30.15R
$$

KSZ066>073-081>083-090>101-251700-
SOUTHEAST KANSAS

CITY           SKY/WX    TMP DP  RH WIND       PRES   REMARKS
CHANUTE        CLOUDY    43  33  68 N20G25    29.83R
COFFEYVILLE    CLOUDY    48  34  58 NW30G39   29.84R
HUTCHINSON     SUNNY     47  28  47 NW32G48   29.94R
MEDICINE LODGE   N/A     47  28  47 N29G48    30.01R
NEWTON         CLOUDY    45  28  53 NW23G35   29.93R
PARSONS        CLOUDY    46  35  65 NW22G35   29.84R
WICHITA INTL   PTSUNNY   48  29  47 NW25G36   29.93R
WICHITA JABRA  CLOUDY    46  30  53 NW23G36   29.92R
WINFIELD       CLOUDY    47  30  51 NW25G37   29.93R
$$

KSZ007>012-019>026-033>040-048>060-102>105-251700-
NORTHEAST KANSAS

CITY           SKY/WX    TMP DP  RH WIND       PRES   REMARKS
CONCORDIA      CLOUDY    42  33  70 N16G24    29.95R
EMPORIA        CLOUDY    41  31  67 NW22G32   29.85R
LAWRENCE       CLOUDY    38  32  79 NW25G35   29.81R WCI  27
MANHATTAN      CLOUDY    42  32  67 N14G21    29.90R
OLATHE IND     CLOUDY    36  33  89 NW21G30   29.78R WCI  25
OLATHE EXE     CLOUDY    37  33  85 NW16G25   29.76R WCI  28
SALINA         CLOUDY    46  30  53 NW26G36   29.95R
TOPEKA BILLARD CLOUDY    40  31  70 NW21G33   29.84R WCI  30
TOPEKA FORBES  CLOUDY    40  31  70 NW28G36   29.82R WCI  29
$$


USA.gov is the U.S. government's official web portal to all federal, state and local government web resources and services.